Weather in Teplovka

Russia / Samara Oblast     52°16′58″N   49°47′20″E
temp.,
°C
wind,
m/s
gust,
m/s
humid.,
%
clouds,
%
prec.,
mm/h
press.,
hPa
HPBL,
m
8 august, mon
mon801:00+21ne34485 0.0 101857
04:00+20nne34535 0.0 101838
07:00+21nne36553 0.0 1019139
10:00+28ne45375 0.0 1018604
13:00+31ne3326100 0.0 10183190
16:00+31ne542798 0.0 10182754
19:00+28n473547 0.0 1017221
22:00+23nne485358 0.0 1018140
9 august, tue
tue901:00+21ne3660100 0.0 101891
04:00+20nne3465100 0.0 101854
07:00+22nne366364 0.0 1018180
10:00+28ne454664 0.0 1018671
13:00+31ne423288 0.0 10173135
16:00+31nne333258 0.0 10162305
19:00+28nne464563 0.0 1016262
22:00+23ne456395 0.1 101799
10 august, wed
wed1001:00+22ene2266100 0.0 101726
04:00+20nne227166 0.0 101729
07:00+22ne236682 0.0 1017124
10:00+28nne22470 0.0 1017701
13:00+32n11339 0.0 10162835
16:00+32n323065 0.0 10152301
19:00+30nne35395 0.0 1015132
22:00+24nne345421 0.0 101651
11 august, thu
thu1101:00+22ne116021 0.0 101611
04:00+21ene116449 0.0 101611
07:00+23n366180 0.0 1017165
10:00+27n555197 0.0 1018654
13:00+30n6543100 0.0 10181308
16:00+30n654099 0.0 10181544
19:00+26nne7948100 0.0 1019721
22:00+20ne512465 0.0 1021404
12 august, fri
fri1201:00+18ne512574 0.0 1022331
04:00+15ne411660 0.0 1023260
07:00+16ne59650 0.0 1024283
10:00+22ne564116 0.0 1024886
13:00+26ne44280 0.0 10231442
16:00+28nne45250 0.0 10221711
19:00+25ne33334 0.0 102261
22:00+19n34491 0.0 102345